Location: Rounton
(54.4000°N, 1.3500°W)
Time: 18:48:20
(UTC+00:00)

Tiros 1 despin weight - Pass Details

Date: 08 December 2021
Orbit: 592 x 641 km, 48.2° (Epoch: 21 January)

Event Time Altitude Azimuth Distance (km) Brightness Sun altitude
Rises 16:25:23 0° 270° (W) 2,830 ? -6.0°
Reaches altitude 10° 16:28:04 10° 255° (WSW) 1,924 ? -6.4°
Maximum altitude 16:31:24 21° 206° (SSW) 1,330 ? -6.8°
Drops below altitude 10° 16:34:45 10° 156° (SSE) 1,919 ? -7.2°
Sets 16:37:26 0° 141° (SE) 2,822 ? -7.5°
